Pagrindinis puslapis
METAR-TAF:

METAR-TAF

Oro uostai :

Vidsel, Švedija

platuma: 65-52N, ilguma: 020-08E, Aukštis: 180 m

Dabartinis oras

Ataskaita buvo paskelbta 36 minutes, ne 23:50 UTC
Vėjas 9 kt iš Pietryčių
Temperatūra 20°C
Drėgmė 83%
Slėgis 1009 hPa
Matomumas 10 km arba daugiau

METAR: ESPE 022350Z AUTO 13009KT 9999 SCT023/// BKN100/// 20/17 Q1009

Laikas: 02:26 (00:26 UTC)


TAF: trūkstamas

Orai ataskaitas ir orų prognozės (METAR, TAF).

turimą stotys yra geltonos ir raudonos taškus žemėlapyje.

Perkelti pele per norėdami pamatyti stoties vardą.

Tada spustelėkite, norėdami matyti oro stebėjimo ir prognozės.

Norėdami pakeisti žemėlapį: spustelėkite ant žalios mygtukų su juodo kryžiaus žemyn,; žalią mygtuką su brūkšneliu, jei norite nutolinti; arba žalių rodyklių gretimoms žemėlapius.


METAR-TAF: